Orbital Elements at Epoch 2459200.5 (2020-Dec-17.0) TDB
Reference: JPL 29 (heliocentric ecliptic J2000)
Element | Value | Uncertainty (1-sigma) | Units |
e | .05448139830846993 | 3.7919e-08 | |
a | 2.693769381998798 | 1.0523e-08 | au |
q | 2.54700905934696 | 1.0465e-07 | au |
i | 5.183806696062303 | 3.785e-06 | deg |
node | 307.9325126943706 | 4.2064e-05 | deg |
peri | 59.36375799381506 | 5.3983e-05 | deg |
M | 72.07864855664839 | 3.306e-05 | deg |
tp | 2458877.172101305377 (2020-Jan-28.67210131) | 0.00014817 | TDB |
period | 1614.875498651783 4.42 | 9.4628e-06 2.591e-08 | d yr |
n | .2229274023295012 | 1.3063e-09 | deg/d |
Q | 2.840529704650635 | 1.1097e-08 | au |
|
| | Orbit Determination Parameters
Additional Information
|